Weather in Klichev

Belarus     53°29′22″N   29°20′30″E
temp.,
°C
wind,
m/s
gust,
m/s
humid.,
%
clouds,
%
prec.,
mm/h
press.,
hPa
HPBL,
m
21 april, wed
wed2100:00+5n2490100 0.0 1011267
03:00+5nnw2491100 0.1 1010205
06:00+5nnw2391100 0.0 1009160
09:00+6wnw237894 0.1 1010432
12:00+9wnw3557100 0.1 10091646
15:00+11wnw245699 0.1 10091569
18:00+11se116099 0.1 1009427
21:00+7sse347798 0.1 101066
22 april, thu
thu2200:00+6ssw359328 0.2 101099
03:00+5ssw23918 0.3 101044
06:00+4s359471 0.0 101078
09:00+9ssw468018 0.1 1010362
12:00+14sw79585 0.8 10101445
15:00+15sw61045100 1.0 10092545
18:00+13sw6961100 0.4 1010984
21:00+9wsw2684100 1.1 1011208
23 april, fri
fri2300:00+7wsw3873100 0.2 1012625
03:00+5wsw3778100 0.2 1013255
06:00+4sw3879100 0.0 1014393
09:00+5wsw4768100 0.0 1014691
12:00+8sw4750100 0.0 10141629
15:00+8sw5651100 0.3 10141671
18:00+8w465592 0.6 10131414
21:00+3wsw347497 0.7 101473
24 april, sat
sat2400:00+2wsw39822 0.0 1013211
03:000w399510 0.0 1013299
06:00+1wsw3897100 0.1 1013370
09:00+2w5780100 0.3 1013805
12:00+4w698198 0.6 1013957
15:00+6wnw6863100 1.4 10131572
18:00+5wnw586996 0.8 10131092
21:00+3wsw388388 1.1 1014206
25 april, sun
sun2500:000wsw39915 0.0 1014205
03:00−1wsw399289 0.0 1013219
06:00−2wsw39915 0.0 1013307
09:00+1sw61086100 0.1 1012804
12:00+2wsw61195100 2.1 1011897
15:00+4w71186100 3.0 10121143
18:00+5w6107132 0.4 10121392
21:00+1wsw410905 0.5 1012279